This is the latest recevied weather packets stored in our database for station/object NN5DX-12. If no packets are shown the sender has not sent any weather packets the latest 10 day(s).
| Time | Temp. | Humidity | Pressure | Rain* | Wind** | Luminosity | Snow |
|---|---|---|---|---|---|---|---|
| 1777923316 | 12.22° C | 40% | 1012.1 hPa | 0 mm | - | - | - |
| 1777923016 | 12.22° C | 41% | 1012 hPa | 0 mm | - | - | - |
| 1777922716 | 12.22° C | 42% | 1012.1 hPa | 0 mm | - | - | - |
| 1777922416 | 12.22° C | 42% | 1012 hPa | 0 mm | - | - | - |
| 1777922117 | 12.22° C | 42% | 1011.9 hPa | 0 mm | - | - | - |
| 1777921816 | 12.22° C | 42% | 1011.9 hPa | 0 mm | - | - | - |
| 1777921517 | 12.22° C | 42% | 1011.9 hPa | 0 mm | - | - | - |
| 1777921216 | 11.67° C | 42% | 1011.8 hPa | 0 mm | - | - | - |
| 1777920917 | 11.67° C | 40% | 1012.4 hPa | 0 mm | - | - | - |
| 1777920617 | 11.67° C | 38% | 1012.4 hPa | 0 mm | - | - | - |
| 1777920317 | 12.22° C | 39% | 1012.5 hPa | 0 mm | - | - | - |
| 1777920016 | 12.78° C | 38% | 1012.9 hPa | 0 mm | - | - | - |
| 1777919716 | 13.33° C | 39% | 1012.9 hPa | 0 mm | - | - | - |
| 1777919416 | 12.78° C | 41% | 1013.1 hPa | 0 mm | - | - | - |
| 1777919117 | 12.22° C | 43% | 1012.5 hPa | 0 mm | - | - | - |
| 1777918816 | 12.22° C | 43% | 1012.6 hPa | 0 mm | - | - | - |
| 1777918516 | 12.78° C | 44% | 1013.2 hPa | 0 mm | - | - | - |
| 1777918216 | 13.33° C | 44% | 1013.2 hPa | 0 mm | - | - | - |
| 1777917916 | 13.33° C | 36% | 1013 hPa | 0 mm | - | - | - |
| 1777917616 | 13.89° C | 32% | 1013 hPa | 0 mm | - | - | - |
| 1777917316 | 13.89° C | 29% | 1014 hPa | 0 mm | - | - | - |
| 1777917016 | 14.44° C | 27% | 1013.9 hPa | 0 mm | - | - | - |
| 1777916716 | 14.44° C | 28% | 1014 hPa | 0 mm | - | - | - |
| 1777916416 | 15.56° C | 25% | 1014.5 hPa | 0 mm | - | - | - |
| 1777916116 | 16.11° C | 27% | 1014.7 hPa | 0 mm | - | - | - |
* Rain latest hour (hover to see other rain measurements)
** Current wind speed in m/s (hover to see current wind gust speed)